sat.trackr.live / text

‹ back to catalog

STARLINK-2211

NORAD 47778 · 2021-017BJ

PAYLOAD ACTIVE UNKNOWN

§ Identity

Operator
Country
US
Launch date
2021-03-04
Launch site
AFETR
Launch vehicle
Mass (kg)
RCS (m²)

Purposes: comms

External: N2YO · Heavens-Above · Gunter

§ Orbital elements

Epoch: 2026-09-11T16:05:20.642784Z

Period
91.61 min
Inclination
53.1550°
Eccentricity
0.0003899
Mean motion
15.71894757 rev/d
Perigee alt
350.9 km
Apogee alt
356.1 km
Semi-major
6,731.6 km
B*
6.7575e-4
RAAN
31.5165°
Arg perigee
324.2535°
Mean anomaly
35.8222°
Rev number
30,673

§ Raw data

STARLINK-22111 47778U 21017BJ  26254.67037781  .00090106  00000+0  67575-3 0  99902 47778  53.1550  31.5165 0003899 324.2535  35.8222 15.71894757306733

JSON: /api/v1/satellites/47778 · /tle

For live sub-satellite position, see the globe view (requires WebGL).

§ Visibility from observer

Set your observer location to see the next 7 days of passes ≥ 10°. The values pass through the URL so the page stays shareable.

No JS? Fill the form by hand. The geolocation button needs JavaScript.